Location: Unspecified
(43.1763°N, 79.4719°W)
Time: 18:26:11
(UTC-04:00)

Cosmos 1674 - Visible Passes

Search period start: 25 June 2017 00:00
Search period end: 05 July 2017 00:00
Orbit: 497 x 524 km, 82.5° (Epoch: 25 June)

Date Brightness Start Highest point End Pass type
(mag) Time Alt. Az. Time Alt. Az. Time Alt. Az.
25 Jun 2.6 21:57:07 10° S 22:00:51 68° E 22:04:35 10° NNE visible
26 Jun 2.9 21:40:38 10° S 21:44:17 52° E 21:47:56 10° NNE visible
26 Jun 5.8 23:19:07 10° W 23:20:13 11° WNW 23:21:19 10° NW visible
27 Jun 5.6 23:01:33 10° WSW 23:03:32 14° WNW 23:05:31 10° NW visible
28 Jun 5.5 22:44:20 10° WSW 22:46:51 17° WNW 22:49:23 10° NNW visible
29 Jun 5.2 22:27:17 10° SW 22:30:11 21° WNW 22:33:06 10° NNW visible
30 Jun 4.9 22:10:21 10° SW 22:13:32 26° WNW 22:16:44 10° NNW visible
01 Jul 4.5 21:53:28 10° SW 21:56:53 33° WNW 22:00:19 10° N visible
02 Jul 4.0 21:36:41 10° SSW 21:40:15 42° WNW 21:43:50 10° N visible
